Flag for China Weather past 2 weeks in Tsingtao, Shandong, China

Now
72 °F

Thunderstorms. Partly cloudy.


Feels Like: 69 °F
Forecast: 74 / 81 °F
Wind: 3 mph from East

Location: Qingdao Airport

Current Time: Sep 1, 2015 at 4:06:11 AM

Latest Report: Sep 1, 2015 at 3:00 AM


Visibility: N/A

Pressure: 29.80 "Hg

Humidity: 88%

Dew point: 68 °F

Location of TsingtaoLocation

Historic Weather in Tsingtao — Graph

°F

Tsingtao temperature yesterday

Maximum temperature yesterday: 84 °F (at 2:00 PM)
Minimum temperature yesterday: 68 °F (at 3:00 AM)
Average temperature yesterday: 76 °F

Past Weeks' High & Low Weather Summary

 TemperatureHumidityPressure
High91 °F (Aug 21, 2:00 PM)100% (Aug 26, 5:00 AM)29.92 "Hg (Aug 26, 5:00 AM)
Low66 °F (Aug 23, 12:00 PM)31% (Aug 22, 3:00 PM)29.62 "Hg (Aug 21, 4:00 PM)
Average77 °F72%29.78 "Hg
* Reported Aug 17 3:00 AM — Sep 1 3:00 AM, Tsingtao, Weather by CustomWeather, © 2015

Note: Actual official high and low records may vary slightly from our data, if they occured in-between our weather recording intervals... More about our weather records

Advertising

Tsingtao weather history for previous 24 hours

 ConditionsComfort  
Time TempWeatherWind HumidityBarometerVisibility
3:00 AM
Tue, Sep 1
72 °FThunderstorms. Partly cloudy.3 mph88%29.80 "HgN/A
2:00 AM73 °FPassing clouds.3 mph83%29.80 "HgN/A
1:00 AM73 °FPassing clouds.1 mph83%29.83 "HgN/A
12:00 AM73 °FPassing clouds.1 mph83%29.83 "HgN/A
11:00 PM
Mon, Aug 31
75 °FLight rain. Passing clouds.6 mph78%29.83 "HgN/A
10:00 PM75 °FPassing clouds.1 mph78%29.86 "HgN/A
9:00 PM75 °FClear.3 mph78%29.86 "Hg10 mi
8:00 PM75 °FPassing clouds.6 mph78%29.86 "HgN/A
7:00 PM77 °FPassing clouds.3 mph74%29.83 "HgN/A
6:00 PM79 °FScattered clouds.10 mph70%29.83 "HgN/A
5:00 PM81 °FScattered clouds.10 mph66%29.83 "HgN/A
4:00 PM81 °FScattered clouds.13 mph62%29.83 "HgN/A
3:00 PM82 °FPartly sunny.13 mph55%29.83 "HgN/A
2:00 PM84 °FPartly sunny.10 mph58%29.83 "HgN/A
1:00 PM81 °FPartly sunny.8 mph70%29.83 "HgN/A
12:00 PM77 °FRain showers. Partly sunny.10 mph69%29.86 "HgN/A
11:00 AM82 °FScattered clouds.6 mph58%29.86 "HgN/A
10:00 AM82 °FScattered clouds.3 mph58%29.89 "HgN/A
9:00 AM81 °FPassing clouds.1 mph62%29.89 "HgN/A
8:00 AM79 °FPassing clouds.3 mph70%29.89 "HgN/A
7:00 AM73 °FSunny.3 mph78%29.86 "Hg10 mi
6:00 AM70 °FSunny.3 mph83%29.89 "Hg10 mi
5:00 AM68 °FClear.1 mph88%29.86 "Hg10 mi
4:00 AM68 °FClear.1 mph88%29.86 "Hg10 mi
Weather by CustomWeather, © 2015

See weather overviewHow to use our weather pages